Regional Weather Roundup
Issued by NWS

Home | Current Version | Previous Version | Text Only | Print | Product List | Glossary Off
Versions: 1 2 3 4 5 6 7 8 9 10 11 12 13 14 15 16 17 18 19 20 21 22 23 24 25 26 27 28 29 30 31 32 33 34 35 36 37 38 39 40 41 42 43 44 45 46 47 48 49 50

000
ASUS43 KDMX 281903
RWRIA

WEATHER ROUNDUP FOR IOWA
NATIONAL WEATHER SERVICE DES MOINES IA
200 PM CDT THU APR 28 2016

NOTE: "FAIR" INDICATES FEW OR NO CLOUDS BELOW 12,000 FEET WITH NO
SIGNIFICANT WEATHER AND/OR OBSTRUCTIONS TO VISIBILITY.

* - THESE STATIONS ARE NOT NWS STATIONS...THUS NOT UNDER NWS
QUALITY CONTROL.  THEY ALSO DO NOT REPORT WEATHER SUCH
AS PRECIPITATION OR FOG.

IAZ001>003-012>014-020>022-031>034-043>046-282000-
   NORTHWEST IOWA

CITY           SKY/WX    TMP DP  RH WIND       PRES   REMARKS
CARROLL *      CLOUDY    48  46  93 N15G21    29.91R
CHEROKEE *     CLOUDY    43  41  93 N10       29.95R
DENISON *      CLOUDY    46  43  87 NW10      29.91R
LE MARS *      CLOUDY    43  39  87 N10G16    29.97S
ORANGE CITY *  CLOUDY    41  37  87 N8        29.96R
SHELDON *      CLOUDY    41  39  93 NE12      29.94S
SIOUX CITY     CLOUDY    46  40  79 N14       29.96R
SPENCER        CLOUDY    43  38  82 N13       29.94R
STORM LAKE *   PTSUNNY   43  41  93 N12       29.93R FOG
$$

IAZ055>058-069>071-079>083-090>094-282000-
   SOUTHWEST IOWA

CITY           SKY/WX    TMP DP  RH WIND       PRES   REMARKS
ATLANTIC *     CLOUDY    52  45  76 NW14G20   29.93R
AUDUBON *      PTSUNNY   48  45  87 NW8G20    29.93R
CLARINDA *       N/A    N/A N/A N/A MISG        N/A
COUNCIL BLFS *   N/A     50  45  81 NW12      29.96R
CRESTON *      CLOUDY    50  46  87 W14G20    29.93R
HARLAN  *      CLOUDY    48  43  81 NW14G21   29.97R
LAMONI         CLOUDY    50  46  86 W16       29.92R
RED OAK *      CLOUDY    52  45  76 NW10G17   29.95R
SHENANDOAH *   CLOUDY    50  46  87 NW9       29.96S
$$

IAZ047>049-059>061-072>074-084-282000-
   CENTRAL IOWA

CITY           SKY/WX    TMP DP  RH WIND       PRES   REMARKS
AMES           CLOUDY    54  46  74 VRB3      29.88R
ANKENY *       CLOUDY    54  48  82 SW10      29.88R
BOONE *        CLOUDY    54  46  76 VRB5      29.87R
CHARITON *     CLOUDY    54  46  76 W8        29.90R
DES MOINES     PTSUNNY   56  46  69 W9        29.87S
GRINNELL*      CLOUDY    52  46  82 W9        29.87R
KNOXVILLE *    CLOUDY    55  45  67 W13       29.87R
MARSHALLTOWN   CLOUDY    53  48  83 CALM      29.86R
NEWTON *       CLOUDY    55  48  76 W12       29.87R
PELLA *        PTSUNNY   57  46  66 W10       29.89R
$$

IAZ004>006-015-016-023>025-035-036-282000-
   NORTH CENTRAL IOWA

CITY           SKY/WX    TMP DP  RH WIND       PRES   REMARKS
ALGONA *       CLOUDY    45  43  93 NE12      29.93R FOG
CLARION *      CLOUDY    46  46 100 NE9       29.90R
ESTHERVILLE    LGT RAIN  41  39  93 N14       29.94R
FORT DODGE *   CLOUDY    48  43  81 N7        29.91R
MASON CITY     LGT RAIN  44  42  93 NE13      29.93R FOG
FOREST CITY *  RAIN      43  41  93 NE7       29.92R
WEBSTER CITY * CLOUDY    50  48  93 N6        29.88R FOG
IOWA FALLS *   CLOUDY    50  46  87 NE3       29.89S
$$

IAZ007>011-017>019-026>030-037>042-050>054-066-282000-
   NORTHEAST IOWA

CITY           SKY/WX    TMP DP  RH WIND       PRES   REMARKS
CEDAR RAPIDS   CLOUDY    52  51  97 W10       29.85S
CHARLES CITY * CLOUDY    45  45 100 E9        29.91R FOG
CLINTON *      CLOUDY    51  47  86 E9        29.88R FOG
DECORAH *      CLOUDY    45  41  87 NE8       29.91R
DUBUQUE        CLOUDY    46  43  89 E10       29.88S
MONTICELLO *   PTSUNNY   50  48  93 E7        29.87R FOG
OELWEIN *      CLOUDY    46  46 100 E9        29.89R FOG
WATERLOO       LGT RAIN  49  47  93 CALM      29.88R FOG
$$

IAZ064-065-067-068-078-282000-
   EAST CENTRAL IOWA

CITY           SKY/WX    TMP DP  RH WIND       PRES   REMARKS
DAVENPORT      CLOUDY    50  48  93 E9        29.87R FOG
IOWA CITY      CLOUDY    52  48  86 W7        29.88R
MT. PLEASANT * CLOUDY    57  50  77 SW12      29.88R
MUSCATINE *    CLOUDY    55  46  71 W15       29.88R
QUAD CITIES    CLOUDY    53  49  86 E6        29.87R FOG
$$

IAZ062-063-075>077-085>089-095>099-282000-
   SOUTHEAST IOWA

CITY           SKY/WX    TMP DP  RH WIND       PRES   REMARKS
BURLINGTON     CLOUDY    55  48  77 W13G20    29.88R
FAIRFIELD *    CLOUDY    55  48  76 W10       29.88R
FORT MADISON * CLOUDY    55  48  76 SW9       29.90R
KEOKUK *       CLOUDY    57  48  72 SW18      29.89R
OSKALOOSA *    CLOUDY    55  46  71 W12       29.88R
OTTUMWA        PTSUNNY   57  47  69 W10       29.88R
WASHINGTON *   CLOUDY    57  50  77 SW9G16    29.88R
$$

ABBREVIATIONS USED IN REMARKS
   TC - TEMPERATURES IN CELSIUS
  WCI - WIND CHILL INDEX
   HX - HEAT INDEX
  VSB - VISIBILITY
$$




USA.gov is the U.S. government's official web portal to all federal, state and local government web resources and services.